星链-31700 (STARLINK-31700 )

导读 | 星芒AI

STARLINK-31700 是 SpaceX Starlink 项目中的一颗低轨通信卫星,属于第三代 Starlink 卫星(也称为 v1.5 或 Block V)。它于 2023 年发射,旨在为全球提供高速、低延迟的互联网服务。该卫星采用先进的推进系统和激光通信技术,以提高网络效率并减少空间碎片。作为 Starlink 卫星群的一部分,它支持偏远地区的宽带接入,并增强整体星座的覆盖能力与可靠性。

基本信息
目录编号:
59436
目录名称:
STARLINK-31700
国际标识:
2024-065R
轨道中心:
EARTH
卫星名称:
星链-31700
卫星全名:
星链-31700 (STARLINK-31700 )
卫星状态:
在轨 (已飞行622 天)
发射日期:
2024-04-07 UTC
国别 :
美国 (US)
星等 :
--
轨道信息
数据来源 国际轨道数据
星历时间: 2025-12-20T03:42:02+0800
8小时前
查看轨道信息
半长轴: 6853.397km
偏心率: 0.0001283
轨道倾角: 53.162°
近地点辐角 101.010°
升交点赤经 292.481°
平近点角 259.105°
近地点: 474.38km
远地点: 476.14km
周期: 94.106分钟
每日圈数: 15.30185
详细信息
固有亮度:
5
最大亮度:
1.5
卫星平台:
Starlink v2.0 mini
覆盖范围:
全球
运营商:
太空探索技术公司
运营商所在国:
美国
制造商(研发单位):
太空探索技术公司
制造商所在国:
美国
使用方式:
暂无
卫星简介
星链(Starlink)计划是由太空探索技术公司(SpaceX)提出的一个巨型低轨卫星互联网星座项目,计划在2019年至2024年间在太空搭建由约1.2万颗卫星组成的“星链”网络,其中1584颗将部署在地球上空550千米处的近地轨道,并从2020年开始工作。该卫星仍在工作。
2D轨道图
3D轨道图
轨道高度分析图
轨道倾角分析图
轨道综合分析图
查看轨道综合分析图